| time (UTC) | temp C | wind direction | speed KPH | gust KPH | rain 1hr cm | rain 24hr cm | rain mn cm | humidity % | barometer mb |
| 20260504012217 | 17 | 0.0 | 0.0 | 0.00 | 0.00 | 0.00 | 46 | 1003.9 | |
| 20260504011217 | 17 | 0.0 | 0.0 | 0.00 | 0.00 | 0.00 | 44 | 1004.0 | |
| 20260504010217 | 18 | 0.0 | 0.0 | 0.00 | 0.00 | 0.00 | 42 | 1004.0 | |
| 20260504005217 | 19 | 0.0 | 0.0 | 0.00 | 0.00 | 0.00 | 42 | 1003.8 | |
| 20260504004217 | 20 | 0.0 | 0.0 | 0.00 | 0.00 | 0.00 | 41 | 1003.9 | |
| 20260504003217 | 20 | 0.0 | 0.0 | 0.00 | 0.00 | 0.00 | 41 | 1003.9 | |
| 20260504002237 | 20 | 0.0 | 0.0 | 0.00 | 0.00 | 0.00 | 40 | 1003.8 | |
| 20260504001217 | 20 | 0.0 | 0.0 | 0.00 | 0.00 | 0.00 | 41 | 1003.8 | |
| 20260504000219 | 21 | 0.0 | 0.0 | 0.00 | 0.00 | 0.00 | 41 | 1003.6 | |
| 20260503235217 | 21 | 0.0 | 0.0 | 0.00 | 0.00 | 0.00 | 40 | 1003.6 | |
| 20260503234217 | 20 | 0.0 | 0.0 | 0.00 | 0.00 | 0.00 | 39 | 1003.6 | |
| 20260503233217 | 20 | 0.0 | 0.0 | 0.00 | 0.00 | 0.00 | 40 | 1003.6 | |
| 20260503232237 | 20 | 0.0 | 0.0 | 0.00 | 0.00 | 0.00 | 41 | 1003.7 | |
| 20260503231217 | 20 | 0.0 | 0.0 | 0.00 | 0.00 | 0.00 | 41 | 1003.8 | |
| 20260503230217 | 20 | 0.0 | 0.0 | 0.00 | 0.00 | 0.00 | 42 | 1003.9 | |
| 20260503225237 | 20 | 0.0 | 0.0 | 0.00 | 0.00 | 0.00 | 41 | 1004.1 | |
| 20260503224217 | 20 | 0.0 | 0.0 | 0.00 | 0.00 | 0.00 | 41 | 1004.0 | |
| 20260503223217 | 20 | 0.0 | 0.0 | 0.00 | 0.00 | 0.00 | 41 | 1004.0 | |
| 20260503222217 | 20 | 0.0 | 0.0 | 0.00 | 0.00 | 0.00 | 42 | 1004.0 | |
| 20260503221217 | 20 | 0.0 | 0.0 | 0.00 | 0.00 | 0.00 | 43 | 1004.3 | |
| 20260503220217 | 20 | 0.0 | 0.0 | 0.00 | 0.00 | 0.00 | 41 | 1004.2 | |
| 20260503215217 | 20 | 0.0 | 0.0 | 0.00 | 0.00 | 0.00 | 42 | 1004.3 | |
| 20260503214217 | 20 | 0.0 | 1.6 | 0.00 | 0.00 | 0.00 | 42 | 1004.3 | |
| 20260503213217 | 19 | 0.0 | 0.0 | 0.00 | 0.00 | 0.00 | 42 | 1004.2 | |
| 20260503212217 | 19 | 0.0 | 0.0 | 0.00 | 0.00 | 0.00 | 42 | 1004.2 | |
| 20260503211237 | 19 | 0.0 | 1.6 | 0.00 | 0.00 | 0.00 | 42 | 1004.3 | |
| 20260503210217 | 18 | 0.0 | 0.0 | 0.00 | 0.00 | 0.00 | 43 | 1004.5 | |
| 20260503205217 | 19 | 0.0 | 0.0 | 0.00 | 0.00 | 0.00 | 43 | 1004.7 | |
| 20260503204217 | 18 | 0.0 | 0.0 | 0.00 | 0.00 | 0.00 | 44 | 1004.6 | |
| 20260503203217 | 19 | 0.0 | 0.0 | 0.00 | 0.00 | 0.00 | 43 | 1004.9 | |
| 20260503202217 | 18 | 0.0 | 0.0 | 0.00 | 0.00 | 0.00 | 43 | 1005.2 | |
| 20260503201217 | 18 | 0.0 | 0.0 | 0.00 | 0.00 | 0.00 | 44 | 1005.3 | |
| 20260503200217 | 18 | 0.0 | 0.0 | 0.00 | 0.00 | 0.00 | 42 | 1005.5 | |
| 20260503195217 | 18 | 0.0 | 0.0 | 0.00 | 0.00 | 0.00 | 43 | 1005.5 | |
| 20260503194216 | 18 | 0.0 | 0.0 | 0.00 | 0.00 | 0.00 | 44 | 1005.7 | |
| 20260503193216 | 18 | 0.0 | 0.0 | 0.00 | 0.00 | 0.00 | 42 | 1006.0 | |
| 20260503192216 | 18 | 0.0 | 0.0 | 0.00 | 0.00 | 0.00 | 44 | 1006.0 | |
| 20260503191217 | 17 | 0.0 | 8.0 | 0.00 | 0.00 | 0.00 | 44 | 1006.1 | |
| 20260503190237 | 17 | 0.0 | 0.0 | 0.00 | 0.00 | 0.00 | 46 | 1006.2 | |
| 20260503185237 | 17 | 0.0 | 0.0 | 0.00 | 0.00 | 0.00 | 46 | 1006.2 | |
| 20260503184217 | 16 | 0.0 | 0.0 | 0.00 | 0.00 | 0.00 | 50 | 1006.1 | |
| 20260503183217 | 16 | 0.0 | 0.0 | 0.00 | 0.00 | 0.00 | 49 | 1006.6 | |
| 20260503182217 | 16 | 0.0 | 0.0 | 0.00 | 0.00 | 0.00 | 49 | 1006.6 | |
| 20260503181217 | 16 | 0.0 | 0.0 | 0.00 | 0.00 | 0.00 | 49 | 1006.8 | |
| 20260503180217 | 16 | 0.0 | 0.0 | 0.00 | 0.00 | 0.00 | 48 | 1006.7 | |
| 20260503175216 | 16 | 0.0 | 0.0 | 0.00 | 0.00 | 0.00 | 50 | 1006.9 | |
| 20260503174217 | 16 | 225 | 9.7 | 27.4 | 0.00 | 0.00 | 0.00 | 48 | 1007.1 |
| 20260503173217 | 16 | 0.0 | 4.8 | 0.00 | 0.00 | 0.00 | 48 | 1006.9 | |
| 20260503172237 | 15 | 225 | 12.9 | 20.9 | 0.00 | 0.00 | 0.00 | 51 | 1007.3 |
| 20260503171237 | 15 | 225 | 16.1 | 22.5 | 0.00 | 0.00 | 0.00 | 52 | 1007.3 |
| 20260503170217 | 15 | 0.0 | 1.6 | 0.00 | 0.00 | 0.00 | 51 | 1007.7 | |
| 20260503160217 | 13 | 0.0 | 0.0 | 0.00 | 0.00 | 0.00 | 58 | 1008.4 | |
| 20260503150216 | 10 | 0.0 | 8.0 | 0.00 | 0.00 | 0.00 | 71 | 1009.3 | |
| 20260503140217 | 11 | 203 | 1.6 | 12.9 | 0.00 | 0.00 | 0.00 | 65 | 1009.8 |
| 20260503131216 | 12 | 0.0 | 0.0 | 0.00 | 0.00 | 0.00 | 59 | 1010.5 | |
| 20260503130216 | 11 | 0.0 | 0.0 | 0.00 | 0.00 | 0.00 | 60 | 1010.7 | |
| 20260503120216 | 9 | 0.0 | 0.0 | 0.00 | 0.00 | 0.00 | 58 | 1010.9 | |
| 20260503110237 | 9 | 0.0 | 0.0 | 0.00 | 0.00 | 0.00 | 56 | 1010.7 | |
| 20260503100216 | 9 | 0.0 | 0.0 | 0.00 | 0.00 | 0.00 | 55 | 1011.2 | |
| 20260503090216 | 8 | 0.0 | 0.0 | 0.00 | 0.00 | 0.00 | 55 | 1011.6 | |
| 20260503081216 | 8 | 0.0 | 0.0 | 0.00 | 0.00 | 0.00 | 54 | 1012.0 | |
| 20260503080216 | 8 | 0.0 | 0.0 | 0.00 | 0.00 | 0.00 | 54 | 1012.1 | |
| 20260503072216 | 8 | 0.0 | 0.0 | 0.00 | 0.00 | 0.00 | 52 | 1012.3 | |
| 20260503071216 | 8 | 0.0 | 0.0 | 0.00 | 0.00 | 0.00 | 52 | 1012.2 | |
| 20260503070236 | 8 | 0.0 | 0.0 | 0.00 | 0.00 | 0.00 | 52 | 1012.3 | |
| 20260503060236 | 9 | 0.0 | 0.0 | 0.00 | 0.00 | 0.00 | 50 | 1012.9 | |
| 20260503054216 | 9 | 0.0 | 0.0 | 0.00 | 0.00 | 0.00 | 50 | 1013.1 | |
| 20260503053317 | 9 | 0.0 | 0.0 | 0.00 | 0.00 | 0.00 | 49 | 1013.1 | |
| 20260503052216 | 9 | 0.0 | 0.0 | 0.00 | 0.00 | 0.00 | 48 | 1013.1 | |
| 20260503051216 | 10 | 0.0 | 0.0 | 0.00 | 0.00 | 0.00 | 48 | 1013.3 | |
| 20260503050216 | 10 | 0.0 | 0.0 | 0.00 | 0.00 | 0.00 | 48 | 1013.4 | |
| 20260503045218 | 10 | 0.0 | 0.0 | 0.00 | 0.00 | 0.00 | 47 | 1013.5 | |
| 20260503044217 | 10 | 0.0 | 0.0 | 0.00 | 0.00 | 0.00 | 47 | 1013.4 | |
| 20260503043237 | 10 | 0.0 | 0.0 | 0.00 | 0.00 | 0.00 | 47 | 1013.5 | |
| 20260503042217 | 10 | 0.0 | 0.0 | 0.00 | 0.00 | 0.00 | 47 | 1013.6 | |
| 20260503041237 | 10 | 0.0 | 0.0 | 0.00 | 0.00 | 0.00 | 47 | 1013.7 | |
| 20260503040217 | 10 | 0.0 | 0.0 | 0.00 | 0.00 | 0.00 | 47 | 1013.9 | |
| 20260503035217 | 10 | 0.0 | 0.0 | 0.00 | 0.00 | 0.00 | 47 | 1013.9 | |
| 20260503034237 | 10 | 0.0 | 0.0 | 0.00 | 0.00 | 0.00 | 46 | 1013.9 | |
| 20260503033217 | 10 | 0.0 | 0.0 | 0.00 | 0.00 | 0.00 | 46 | 1013.9 | |
| 20260503032217 | 10 | 0.0 | 0.0 | 0.00 | 0.00 | 0.00 | 46 | 1014.0 | |
| 20260503031217 | 10 | 0.0 | 0.0 | 0.00 | 0.00 | 0.00 | 46 | 1014.1 | |
| 20260503030217 | 10 | 0.0 | 0.0 | 0.00 | 0.00 | 0.00 | 46 | 1014.2 | |
| 20260503025217 | 10 | 0.0 | 0.0 | 0.00 | 0.00 | 0.00 | 47 | 1014.3 | |
| 20260503024217 | 10 | 0.0 | 0.0 | 0.00 | 0.00 | 0.00 | 47 | 1014.2 | |
| 20260503023217 | 10 | 0.0 | 0.0 | 0.00 | 0.00 | 0.00 | 47 | 1014.2 | |
| 20260503022217 | 10 | 0.0 | 0.0 | 0.00 | 0.00 | 0.00 | 47 | 1014.3 | |
| 20260503021217 | 10 | 0.0 | 0.0 | 0.00 | 0.00 | 0.00 | 46 | 1014.1 | |
| 20260503020237 | 10 | 0.0 | 0.0 | 0.00 | 0.00 | 0.00 | 45 | 1014.0 | |
| 20260503015217 | 10 | 0.0 | 0.0 | 0.00 | 0.00 | 0.00 | 44 | 1013.9 | |
| 20260503014217 | 10 | 0.0 | 0.0 | 0.00 | 0.00 | 0.00 | 44 | 1013.9 | |
| 20260503013217 | 11 | 0.0 | 0.0 | 0.00 | 0.00 | 0.00 | 43 | 1013.9 |